Temp
89 91 90 90 90 89 90 90 90 91 93 91 92 92 91 90 90 89 88 90 89 89 89 90 89 89 92 95 97 96 94 94 89 93 95 97 92 94 94 95 95 96 82
88 88 90 90 89 91 89 91 91 89 91 91 91 90 91 91 91 89 88 92 89 89 89 89 89 93 88 88 92 89 91 90 89 84 89 93 93 95 95 93 96 101 99
89 93 91 90 89 89 90 90 91 90 90 91 90 90 90 90 91 91 90 89 91 90 90 90 90 90 88 90 90 91 93 92 92 90 89 94 95 97 96 95 95 95 102
79 83 87 87 89 89 89 90 89 90 89 89 90 90 90 91 91 92 92 90 90 91 92 91 91 91 89 89 89 88 89 89 89 90 91 93 95 96 96 94 94 97 97
75 79 79 83 88 88 88 89 89 89 89 89 89 90 90 92 95 91 92 92 90 90 92 92 93 90 82 83 91 88 88 89 90 91 91 92 93 92 89 93 92 95 94
66 70 73 78 82 83 86 86 86 88 89 89 88 89 89 93 81 75 82 92 92 91 90 91 92 83 82 75 73 73 78 83 84 86 88 87 85 88 92 91 90 89 86
66 64 67 69 71 76 82 84 85 82 82 84 87 88 88 89 75 70 73 91 91 91 89 91 92 97 84 91 75 72 72 69 70 82 81 83 83 86 87 85 85 86 86
69 67 66 67 67 70 71 79 80 81 83 81 82 84 87 89 72 69 70 87 89 89 89 90 89 90 90 89 90 89 88 88 84 84 82 84 86 87 86 87 86 86 88
76 75 73 70 69 68 70 69 73 77 78 80 82 83 82 87 68 66 70 88 88 86 89 89 90 90 80 72 88 88 88 90 85 73 75 74 72 71 75 88 86 87 87
75 75 76 76 68 68 68 67 70 73 77 77 80 80 77 83 71 63 69 88 86 89 88 86 75 81 72 67 85 87 85 87 89 90 91 80 73 80 68 79 86 84 86
74 74 74 76 74 74 70 71 70 71 72 73 73 76 79 80 81 62 61 83 86 88 91 92 94 70 67 65 63 86 84 86 85 88 89 91 92 92 93 87 85 86 86
70 71 71 73 76 78 74 73 70 70 68 71 69 73 78 80 69 68 59 60 75 84 86 92 93 66 62 63 66 72 68 69 88 89 90 92 93 95 97 96 88 88 91
68 68 69 71 74 75 73 72 73 71 72 70 69 68 72 80 85 67 60 59 60 73 86 82 64 59 58 60 57 61 62 81 86 86 86 89 93 96 92 92 92 90 88
66 67 69 70 71 74 77 78 78 75 73 74 77 77 78 77 79 84 80 80 63 66 66 77 76 70 61 67 75 71 79 86 86 87 87 90 93 94 95 97 94 94 93
67 68 69 72 72 75 77 79 79 79 74 74 73 74 75 77 79 58 58 65 67 64 59 70 81 84 84 85 88 89 90 87 85 86 87 89 91 93 93 96 95 94 92
65 68 70 72 75 77 78 78 62 60 55 51 51 58 73 61 54 52 48 47 47 49 63 67 71 80 86 87 88 87 86 85 90 89 88 88 89 90 91 93 94 93 91
64 67 69 67 72 73 75 74 75 72 53 50 48 48 45 51 47 45 44 45 45 48 63 69 72 76 79 82 84 86 88 93 89 91 91 91 91 92 89 91 91 92 92
64 59 67 68 70 71 74 74 76 75 75 77 57 55 49 44 44 44 45 46 67 58 63 69 70 77 75 77 80 88 88 89 88 85 84 87 90 90 89 89 91 91 91
63 64 66 69 72 70 73 73 75 75 75 76 80 64 59 50 48 48 46 60 64 65 67 68 75 79 76 75 76 79 80 80 82 79 82 83 86 91 90 91 91 74 81
59 57 57 62 65 66 69 71 72 73 74 75 77 79 80 71 70 71 72 65 63 63 64 69 73 77 74 73 73 75 78 77 76 76 77 78 82 82 85 86 87 88 90
59 57 56 57 57 61 67 68 70 74 74 75 76 74 45 70 67 67 63 61 60 58 58 60 62 68 68 69 68 66 68 70 71 73 74 76 77 77 79 79 81 81 80
57 56 55 55 57 61 63 65 70 72 73 74 75 74 45 70 70 62 59 58 56 56 55 55 57 59 59 61 62 61 62 64 65 64 64 64 66 68 70 72 73 70 71
53 53 53 55 56 55 57 60 62 64 67 68 71 73 72 71 66 59 55 53 52 51 51 52 53 54 55 55 56 57 57 59 61 60 61 61 63 64 66 66 67 68 69
52 52 52 52 53 54 55 57 54 54 57 58 62 62 61 59 56 53 50 49 48 48 48 48 49 49 49 50 50 52 53 53 54 54 59 60 61 62 65 66 66 67 67
47 46 47 47 48 50 51 52 56 56 54 54 53 54 54 52 49 48 47 46 45 44 44 45 45 45 46 46 46 47 41 33 46 46 57 60 62 64 65 67 68 68 68
46 44 43 44 44 43 44 44 46 48 48 48 48 47 47 46 44 44 44 43 43 42 41 41 41 42 43 42 41 37 34 33 42 37 55 59 60 62 63 67 67 66 69
MSLP
1014.75 1015.08 1015.63 1016.13 1016.63 1017.19 1017.37 1017.64 1017.87 1017.82 1017.54 1017.90 1018.05 1018.42 1018.89 1019.27 1019.45 1019.67 1019.63 1019.50 1019.84 1019.95 1020.01 1019.84 1019.97 1020.16 1019.75 1019.25 1018.92 1018.90 1018.86 1018.75 1018.48 1018.11 1018.12 1017.79 1017.89 1017.73 1017.61 1017.60 1017.13 1016.41 1017.32
1014.67 1015.02 1015.19 1015.63 1016.26 1016.41 1016.96 1017.17 1017.44 1017.72 1017.65 1017.85 1018.13 1018.45 1018.43 1018.71 1019.04 1019.51 1019.67 1019.21 1019.56 1019.63 1019.63 1019.69 1019.78 1019.71 1019.89 1019.85 1019.49 1019.30 1019.13 1019.17 1019.15 1018.77 1018.45 1017.94 1017.52 1017.26 1017.07 1017.27 1016.75 1016.17 1015.89
1013.66 1013.86 1014.55 1015.06 1015.76 1016.12 1016.32 1016.79 1017.01 1017.24 1017.57 1017.72 1017.98 1018.21 1018.41 1018.59 1018.52 1018.81 1019.27 1019.36 1019.16 1019.32 1019.33 1019.21 1019.32 1019.44 1019.59 1019.37 1019.32 1018.99 1018.69 1018.81 1018.53 1018.38 1018.05 1017.74 1017.26 1016.97 1016.75 1016.53 1016.34 1015.93 1015.28
1015.25 1014.34 1014.17 1014.81 1015.21 1015.72 1016.17 1016.34 1016.78 1017.01 1017.19 1017.39 1017.62 1017.87 1018.10 1018.18 1018.27 1018.42 1018.43 1018.75 1018.87 1018.80 1018.80 1018.86 1018.88 1018.89 1019.10 1019.23 1019.27 1019.26 1019.14 1019.10 1018.77 1018.44 1017.84 1017.28 1016.83 1016.58 1016.37 1016.21 1016.09 1015.79 1015.38
1016.76 1016.03 1015.51 1015.39 1015.39 1015.65 1015.87 1016.05 1016.33 1016.65 1016.88 1017.14 1017.29 1017.50 1017.71 1017.78 1017.69 1017.93 1017.94 1017.96 1018.13 1018.27 1018.23 1018.27 1018.25 1018.49 1018.66 1018.91 1018.86 1018.76 1018.85 1018.82 1018.60 1018.04 1017.50 1017.19 1016.80 1016.65 1016.74 1016.70 1016.23 1015.71 1015.55
1018.02 1017.84 1017.49 1016.77 1016.27 1015.98 1015.97 1015.96 1016.11 1016.25 1016.32 1016.59 1016.89 1017.00 1017.20 1017.27 1017.08 1017.37 1017.54 1017.44 1017.52 1017.57 1017.63 1017.71 1017.91 1018.03 1018.38 1018.70 1018.83 1018.81 1018.92 1019.01 1018.87 1018.63 1018.02 1017.54 1017.35 1017.21 1016.79 1016.80 1016.59 1016.20 1015.75
1019.04 1019.32 1018.81 1018.36 1017.50 1016.89 1016.28 1015.97 1015.87 1016.04 1016.08 1016.15 1016.29 1016.48 1016.62 1016.85 1016.98 1017.11 1017.27 1017.39 1017.25 1017.01 1017.12 1017.19 1017.32 1016.98 1017.42 1017.84 1018.19 1018.47 1018.49 1018.49 1018.57 1018.69 1018.33 1017.96 1017.59 1017.44 1017.37 1017.10 1016.87 1016.54 1016.23
1019.33 1019.49 1019.35 1019.11 1018.51 1018.08 1017.47 1016.46 1016.43 1016.29 1015.97 1016.05 1016.08 1016.09 1016.15 1016.20 1016.55 1016.82 1017.04 1017.19 1016.94 1016.85 1016.82 1016.82 1016.99 1016.97 1016.99 1017.17 1017.40 1017.45 1017.61 1017.47 1017.45 1017.73 1017.75 1017.53 1017.45 1017.31 1017.25 1016.98 1016.83 1016.56 1016.01
1018.70 1018.75 1018.87 1019.12 1018.86 1018.75 1018.34 1017.69 1017.30 1016.92 1016.52 1016.11 1016.08 1016.05 1015.98 1015.82 1016.02 1016.34 1016.62 1016.66 1016.38 1016.27 1016.27 1016.32 1016.33 1016.37 1016.55 1016.93 1017.04 1016.79 1016.60 1016.31 1015.89 1016.43 1016.42 1016.36 1016.59 1016.76 1016.94 1016.99 1016.51 1016.09 1015.05
1018.94 1018.93 1018.85 1018.79 1019.18 1019.05 1018.65 1018.56 1018.27 1017.63 1017.04 1016.35 1015.79 1015.96 1015.95 1015.76 1015.77 1015.95 1016.22 1016.21 1015.66 1015.28 1015.25 1015.38 1015.66 1015.85 1015.99 1016.26 1016.52 1016.49 1016.19 1015.83 1015.86 1015.65 1015.91 1015.86 1016.07 1015.93 1016.41 1016.66 1016.34 1015.80 1014.93
1019.51 1019.48 1019.18 1018.75 1018.65 1018.41 1018.67 1018.59 1018.64 1018.15 1017.51 1016.72 1015.60 1015.81 1015.74 1015.68 1015.48 1015.53 1015.64 1015.78 1015.25 1014.69 1014.29 1014.01 1014.11 1014.44 1015.00 1015.41 1015.74 1015.83 1015.37 1015.52 1015.35 1015.35 1015.18 1014.96 1014.61 1014.42 1014.22 1014.43 1014.68 1014.79 1014.27
1019.88 1019.55 1019.21 1018.83 1018.33 1017.91 1017.98 1017.97 1018.08 1017.68 1017.12 1016.11 1015.56 1015.27 1015.14 1015.23 1015.21 1015.11 1015.15 1015.18 1015.04 1014.79 1014.05 1013.43 1013.05 1013.15 1013.36 1013.75 1014.34 1014.55 1014.69 1015.02 1014.99 1014.55 1014.07 1013.49 1013.27 1012.99 1012.63 1012.44 1012.67 1013.05 1012.97
1019.94 1019.57 1019.20 1018.72 1018.20 1017.75 1017.44 1017.18 1016.87 1016.45 1016.09 1015.66 1014.97 1014.90 1014.47 1014.61 1014.43 1014.63 1014.59 1014.53 1014.57 1014.81 1014.06 1013.49 1013.38 1013.27 1013.63 1013.63 1013.91 1013.66 1013.73 1014.26 1014.01 1013.53 1013.05 1012.61 1012.44 1012.24 1012.03 1011.73 1011.62 1011.85 1012.33
1019.80 1019.39 1018.94 1018.37 1017.73 1017.28 1016.92 1016.47 1016.09 1015.98 1016.01 1015.77 1015.23 1015.08 1014.77 1014.55 1014.23 1013.77 1014.24 1014.65 1014.77 1014.96 1014.47 1013.87 1013.47 1013.37 1013.08 1012.86 1012.82 1012.75 1013.07 1012.81 1012.57 1012.21 1011.96 1011.81 1011.56 1011.17 1010.92 1010.79 1010.72 1010.91 1010.90
1019.53 1019.05 1018.49 1017.85 1017.27 1016.54 1016.06 1015.62 1015.45 1015.46 1015.85 1016.11 1016.10 1015.85 1015.29 1014.72 1014.21 1014.52 1015.07 1015.43 1015.45 1015.09 1014.58 1013.60 1012.35 1011.72 1011.45 1011.13 1010.88 1010.83 1010.91 1011.22 1011.40 1011.37 1011.09 1010.72 1010.39 1010.09 1009.79 1009.85 1009.76 1009.74 1009.72
1019.46 1018.65 1017.93 1017.28 1016.56 1015.80 1015.12 1014.82 1014.75 1015.01 1015.27 1015.48 1015.75 1015.93 1015.45 1015.14 1015.06 1015.13 1014.77 1014.29 1014.47 1014.72 1013.83 1012.93 1012.13 1011.17 1010.11 1009.43 1009.19 1009.12 1009.20 1009.28 1009.34 1009.52 1009.74 1009.80 1009.61 1009.39 1009.11 1008.93 1008.87 1008.87 1008.80
1019.16 1018.50 1017.93 1017.31 1016.49 1015.75 1015.19 1014.84 1014.03 1013.97 1014.38 1014.64 1014.82 1014.83 1014.86 1014.78 1014.84 1014.86 1015.06 1014.45 1013.73 1013.89 1012.84 1011.95 1011.03 1010.55 1009.70 1009.15 1008.54 1007.76 1007.34 1007.17 1007.63 1008.09 1008.43 1008.31 1008.23 1008.13 1008.17 1008.19 1008.19 1008.01 1007.81
1018.71 1018.39 1017.77 1017.10 1016.39 1015.66 1014.88 1014.45 1014.00 1013.57 1013.38 1013.20 1013.44 1013.66 1013.89 1014.11 1014.13 1014.25 1013.95 1013.80 1013.05 1012.68 1011.83 1010.87 1009.84 1009.49 1009.54 1009.25 1008.84 1007.62 1007.11 1006.89 1007.17 1007.79 1008.16 1008.05 1007.74 1007.62 1007.58 1007.47 1007.39 1007.20 1007.07
1018.75 1018.15 1017.53 1016.50 1015.47 1015.09 1014.63 1014.17 1013.52 1012.96 1012.83 1012.52 1011.86 1012.07 1012.41 1012.78 1013.33 1013.35 1013.00 1013.25 1012.50 1011.50 1010.50 1009.63 1008.87 1008.50 1008.61 1007.84 1006.72 1007.77 1007.16 1007.41 1007.57 1007.50 1007.67 1007.64 1007.24 1006.63 1006.54 1006.69 1006.56 1006.41 1006.22
1019.13 1018.67 1018.31 1017.51 1016.38 1015.55 1014.75 1013.93 1013.26 1012.56 1012.16 1011.69 1011.21 1010.91 1010.81 1011.57 1012.10 1011.88 1011.57 1012.06 1011.74 1011.05 1010.27 1009.37 1008.03 1007.55 1007.70 1007.83 1007.34 1004.96 1005.59 1006.75 1007.41 1007.49 1007.27 1007.23 1006.97 1006.85 1006.63 1006.54 1006.49 1006.18 1005.73
1018.73 1018.54 1018.17 1017.59 1016.80 1016.09 1014.91 1014.08 1013.21 1011.98 1011.29 1010.85 1010.55 1010.65 1011.88 1011.99 1011.88 1011.79 1011.78 1011.88 1011.61 1011.07 1010.60 1009.93 1008.70 1007.71 1006.67 1006.88 1006.63 1006.88 1006.57 1007.02 1007.32 1007.15 1007.13 1006.90 1006.55 1006.72 1006.74 1006.68 1006.79 1006.90 1006.89
1018.69 1018.21 1017.76 1017.10 1016.42 1015.69 1014.75 1014.05 1012.74 1011.53 1010.88 1010.68 1010.65 1010.38 1011.72 1011.42 1011.43 1011.73 1011.91 1011.79 1011.80 1011.17 1010.96 1010.45 1009.79 1009.09 1008.41 1007.76 1007.62 1007.41 1007.37 1007.84 1008.13 1007.83 1007.85 1007.78 1007.51 1007.08 1006.93 1006.91 1006.85 1006.92 1007.13
1018.57 1017.91 1017.44 1016.69 1016.17 1015.68 1014.99 1014.09 1013.07 1012.09 1011.77 1011.41 1010.99 1010.50 1010.71 1011.02 1011.55 1011.93 1011.95 1011.95 1011.92 1011.41 1011.11 1010.53 1010.24 1009.78 1009.21 1008.57 1008.35 1008.61 1008.36 1007.80 1007.99 1008.26 1007.89 1007.45 1007.75 1007.64 1007.22 1007.02 1006.79 1006.77 1006.83
1018.31 1017.76 1017.13 1016.76 1016.21 1015.58 1014.97 1014.22 1013.46 1013.07 1012.88 1012.94 1012.55 1012.27 1012.23 1012.26 1012.43 1012.37 1012.36 1011.99 1011.77 1011.37 1011.11 1010.80 1010.79 1010.51 1009.97 1009.53 1009.29 1009.03 1009.11 1009.23 1008.82 1008.05 1007.75 1006.54 1007.45 1007.65 1007.23 1006.83 1006.50 1006.48 1006.55
1018.76 1018.25 1017.75 1017.39 1016.71 1016.09 1015.54 1014.81 1013.91 1013.51 1013.47 1013.35 1013.21 1013.06 1012.95 1013.00 1012.94 1012.67 1012.43 1012.11 1011.88 1011.67 1011.39 1011.41 1011.19 1010.77 1010.97 1010.38 1010.21 1010.18 1009.73 1009.41 1009.21 1007.72 1007.63 1007.49 1007.54 1007.23 1006.74 1006.75 1006.51 1006.33 1006.21
1018.80 1018.53 1018.05 1017.38 1017.03 1016.82 1016.25 1015.46 1014.87 1014.55 1014.17 1013.77 1013.53 1013.62 1013.43 1013.48 1013.31 1012.96 1012.65 1012.49 1012.16 1012.12 1011.71 1011.97 1011.78 1011.19 1011.37 1010.97 1010.18 1010.19 1009.53 1009.21 1008.63 1007.96 1007.31 1007.26 1007.32 1007.27 1006.55 1006.69 1006.63 1005.81 1005.99
Wind_Speed
9 11 11 13 13 12 11 10 9 9 6 6 6 7 10 9 8 7 8 5 8 7 7 5 5 6 7 7 5 5 5 6 7 7 8 7 7 6 6 7 9 11 8
13 10 13 12 11 13 12 12 11 10 9 8 9 10 9 10 9 9 9 8 8 8 8 7 8 7 7 7 7 6 6 7 7 8 8 8 7 5 4 5 7 8 7
7 15 12 12 12 12 13 12 12 11 11 11 10 10 10 11 10 11 10 10 9 9 9 8 8 8 7 7 6 7 6 6 6 7 8 8 7 7 5 7 6 6 4
13 8 7 9 10 12 11 10 11 10 11 11 10 10 11 11 10 12 12 11 11 11 11 10 10 9 8 8 8 7 8 6 8 9 9 8 7 6 6 6 7 7 7
14 11 8 6 7 7 9 10 11 11 12 11 11 11 12 12 11 13 12 11 11 12 11 10 11 11 9 8 8 8 7 7 8 8 8 8 8 7 7 8 8 8 8
12 13 13 12 6 7 8 8 10 12 12 11 12 12 13 12 13 11 9 11 11 11 10 10 10 8 10 9 9 11 8 7 7 8 9 8 7 7 7 8 9 9 9
10 9 13 13 13 11 7 7 8 6 7 10 12 13 13 13 12 9 11 12 12 11 11 10 11 12 14 13 15 14 13 10 11 9 10 9 10 8 8 8 9 9 9
6 6 8 9 10 12 12 9 8 8 9 7 7 11 13 12 12 12 10 12 13 14 13 11 13 13 11 10 12 12 13 13 13 12 14 13 12 11 11 10 9 9 10
10 10 9 9 10 10 12 10 12 8 5 8 10 12 12 13 11 13 11 15 15 16 14 14 14 13 13 11 11 12 11 12 11 16 17 15 12 9 7 9 11 10 10
10 11 9 7 5 7 8 9 10 10 10 6 8 11 14 14 12 11 12 12 15 14 14 16 17 17 12 12 13 13 14 14 12 13 9 11 12 13 13 11 11 12 11
10 11 11 10 8 4 5 6 8 10 10 10 6 9 12 14 12 11 14 12 14 13 14 13 13 21 22 20 14 14 16 11 12 11 12 11 12 12 12 12 13 12 11
12 12 12 11 10 8 9 7 8 8 9 10 6 8 9 11 13 12 12 17 14 14 15 14 13 11 20 23 18 22 16 11 13 13 13 12 11 11 11 10 14 14 12
12 13 13 13 12 11 11 11 9 5 7 6 5 6 7 11 11 11 11 16 19 15 15 14 15 13 3 7 12 11 13 12 13 13 13 13 11 11 11 9 7 10 13
14 14 13 13 12 11 10 10 10 7 6 9 8 8 9 9 9 9 4 5 7 7 12 14 16 17 16 16 9 11 11 12 12 13 12 12 12 11 11 10 10 10 10
14 14 14 12 14 12 11 10 10 9 8 9 8 10 10 10 10 10 6 8 8 7 7 8 13 13 13 14 14 13 12 12 13 13 12 12 12 11 11 10 10 10 10
15 13 12 12 12 12 11 11 13 16 10 13 14 12 11 12 11 15 18 17 11 7 5 6 9 13 14 13 14 13 12 14 12 12 12 13 12 12 11 10 10 10 10
16 15 12 13 13 13 12 13 13 10 18 15 16 17 18 16 13 12 13 14 18 5 7 10 11 13 13 13 14 12 13 13 11 11 11 10 9 10 10 11 10 10 11
14 16 13 13 14 14 13 13 13 12 12 11 17 16 12 13 10 10 11 8 12 8 8 11 12 13 11 13 14 14 10 8 10 9 10 11 11 10 10 11 10 12 12
12 11 14 14 13 14 13 13 14 13 12 13 12 10 13 6 6 12 6 6 10 10 9 10 13 11 11 10 12 13 10 9 10 9 11 12 13 11 11 12 12 14 12
12 16 13 13 14 13 14 13 15 14 14 13 13 11 9 4 8 9 8 8 7 7 9 12 9 12 11 10 8 11 8 7 9 10 10 10 10 10 12 13 12 12 10
9 11 15 12 9 12 14 16 16 15 14 13 12 7 9 5 8 9 8 8 8 6 8 9 9 9 1 0 2 3 5 4 4 7 8 8 8 8 10 8 9 8 8
11 11 11 11 10 12 14 14 15 15 13 12 13 8 12 7 9 7 8 7 7 6 5 7 8 5 5 3 3 3 1 3 5 4 3 4 5 4 4 5 6 3 5
11 12 11 12 10 12 13 12 11 10 11 12 14 10 10 9 8 8 7 6 6 6 6 6 7 5 3 5 4 4 5 3 2 3 4 2 4 5 5 6 5 5 4
11 12 11 9 10 9 11 10 8 9 7 10 13 11 10 9 9 9 7 5 5 5 5 5 5 7 5 4 4 4 3 6 5 3 5 1 4 7 7 6 3 4 3
9 10 10 10 11 11 11 11 12 10 8 7 8 9 9 8 7 6 5 4 4 4 4 4 4 6 6 6 5 5 5 7 10 3 3 4 4 6 4 4 4 4 4
9 9 9 7 7 8 8 9 9 9 9 7 6 7 7 6 5 4 3 2 1 2 4 4 5 8 7 6 8 10 7 9 7 8 3 3 4 3 4 2 4 4 4
Wind_Direction
227 203 198 205 201 206 214 209 224 247 252 248 176 212 185 199 211 210 271 144 202 222 266 284 235 268 277 285 275 248 261 272 285 304 334 315 335 286 327 315 311 294 141
183 217 210 200 225 197 211 208 203 224 223 225 230 214 225 212 200 210 227 230 219 219 220 232 238 245 214 249 276 290 290 324 300 302 288 283 287 293 289 300 298 313 328
257 191 197 205 198 230 203 212 208 202 219 223 222 229 224 234 225 204 216 238 243 226 245 235 232 239 241 267 297 288 272 236 242 267 312 299 296 293 310 287 275 302 328
338 358 185 197 204 211 224 225 211 217 211 220 227 226 230 236 221 244 214 217 233 243 234 239 247 234 244 240 238 249 251 266 273 264 266 280 295 301 279 317 320 318 339
349 352 355 341 220 240 228 218 226 214 219 221 223 231 231 232 230 214 238 230 218 231 247 241 236 245 242 241 252 233 255 253 263 278 283 295 295 349 333 313 302 327 304
15 2 353 1 311 226 224 233 220 226 225 219 223 227 232 237 233 225 240 238 235 235 239 237 248 229 220 228 238 257 259 275 268 279 286 290 309 297 301 316 323 308 307
39 9 9 358 355 344 295 249 235 246 250 235 228 230 231 233 251 230 219 236 257 252 242 243 250 242 203 222 219 233 249 237 234 262 274 276 287 288 284 288 286 306 299
80 48 21 359 0 348 338 321 290 276 255 252 256 246 240 237 225 224 218 241 242 246 262 255 239 256 271 227 230 233 228 236 225 226 234 251 259 266 268 272 268 273 267
17 17 26 14 6 354 344 336 326 303 300 276 268 263 254 250 228 216 213 243 242 243 246 249 253 252 239 233 255 256 245 251 251 207 220 230 230 239 252 277 277 280 279
360 354 346 356 2 338 350 339 333 308 296 289 292 275 265 259 250 210 208 244 247 244 233 233 238 251 245 214 231 245 250 252 258 273 258 250 246 247 229 232 254 258 266
335 332 328 326 323 318 305 318 313 309 308 291 285 289 283 273 259 217 203 231 251 250 245 246 234 213 224 229 218 241 244 252 256 256 257 253 252 251 236 211 215 228 249
320 316 315 313 310 313 312 303 289 290 297 310 298 284 254 263 261 253 210 225 249 254 261 270 259 227 213 216 215 233 232 231 254 260 263 259 255 259 258 248 200 214 229
306 304 304 303 300 298 294 299 294 280 298 266 287 282 289 280 258 254 242 221 231 238 252 265 307 316 254 232 250 264 221 231 244 248 250 255 254 259 267 266 254 205 218
299 294 289 287 288 289 288 280 281 284 279 295 300 281 281 271 282 244 303 349 267 263 269 273 262 270 290 280 280 217 223 231 233 241 242 249 253 248 250 245 239 240 247
298 294 289 283 280 279 270 271 276 272 268 275 276 281 293 291 282 332 315 312 304 301 313 292 276 249 244 243 244 241 230 219 227 242 249 247 246 245 245 247 251 248 253
289 285 283 284 279 275 279 277 233 237 220 215 237 249 275 267 300 297 305 315 294 252 254 265 263 264 255 239 228 227 225 222 232 223 220 230 242 250 255 254 251 248 251
282 281 278 276 273 272 269 270 271 261 225 230 228 232 229 260 289 284 273 285 289 262 251 258 245 247 260 260 252 232 232 220 205 218 237 244 245 241 232 239 252 254 243
283 287 274 272 277 279 274 273 274 271 274 266 225 227 212 231 238 251 276 289 273 216 247 249 245 247 251 262 272 271 267 256 225 234 246 257 243 243 248 252 245 247 238
297 290 296 295 274 267 269 270 271 277 278 271 268 218 204 202 259 274 260 253 283 286 279 251 254 248 237 232 250 252 244 230 224 215 234 244 253 245 233 234 241 242 253
297 290 288 289 282 286 292 269 266 260 262 267 269 269 275 267 293 300 301 296 290 281 280 283 247 248 241 231 246 264 226 236 238 237 236 244 250 254 263 270 274 288 282
293 290 291 283 275 283 272 264 262 266 265 268 278 294 69 266 278 287 295 290 297 300 306 313 321 319 276 22 87 116 336 336 327 280 257 246 244 241 250 240 253 272 282
294 289 285 278 282 276 272 288 285 269 272 274 274 248 171 269 266 268 283 292 297 309 309 309 308 329 330 340 334 352 166 250 269 258 290 318 319 315 305 262 252 243 264
296 295 286 287 275 282 281 280 280 270 272 293 293 294 292 291 297 286 288 294 298 305 318 332 328 324 349 4 14 334 292 243 277 303 252 250 280 270 250 245 227 228 236
302 299 295 298 296 293 289 284 288 300 281 282 285 287 288 289 289 293 293 300 309 316 335 345 335 345 345 360 360 356 319 301 273 233 284 105 276 267 244 254 211 219 251
316 311 305 299 299 297 295 293 293 298 299 283 284 286 288 287 287 290 296 306 318 343 12 354 356 5 353 15 8 332 330 308 281 258 242 251 249 264 268 252 217 203 192
328 315 305 300 290 283 282 289 289 289 283 281 285 282 283 284 284 291 294 293 13 31 49 12 10 31 9 358 13 345 339 328 329 326 343 39 356 324 334 275 357 7 32